sat.trackr.live / text

‹ back to catalog

ONEWEB-0673

NORAD 55832 · 2023-029AN

PAYLOAD ACTIVE UNKNOWN

§ Identity

Operator
Country
UK
Launch date
2023-03-09
Launch site
AFETR
Launch vehicle
Mass (kg)
RCS (m²)

Purposes: comms

External: N2YO · Heavens-Above · Gunter

§ Orbital elements

Epoch: 2026-05-24T23:48:54.680256Z

Period
109.11 min
Inclination
87.9168°
Eccentricity
0.0002026
Mean motion
13.19722937 rev/d
Perigee alt
1,184.2 km
Apogee alt
1,187.3 km
Semi-major
7,563.9 km
B*
-6.2568e-6
RAAN
309.5893°
Arg perigee
101.0866°
Mean anomaly
259.0495°
Rev number
15,584

§ Raw data

ONEWEB-06731 55832U 23029AN  26144.99229954  .00000010  00000+0 -62568-5 0  99982 55832  87.9168 309.5893 0002026 101.0866 259.0495 13.19722937155844

JSON: /api/v1/satellites/55832 · /tle

For live sub-satellite position, see the globe view (requires WebGL).

§ Visibility from observer

Set your observer location to see the next 7 days of passes ≥ 10°. The values pass through the URL so the page stays shareable.

No JS? Fill the form by hand. The geolocation button needs JavaScript.